GW1410 Weather Reports


time (UTC)temp
C
wind
direction
speed
KPH
gust
KPH
rain 1hr
cm
rain 24hr
cm
rain mn
cm
humidity
%
barometer
mb
20260906131549 29 228 3.2 12.9 0.00 0.00 0.00 68 1010.1
20260906130100 29 36 4.8 14.5 0.00 0.00 0.00 68 1010.2
20260906124607 30 252 3.2 14.5 0.00 0.00 0.00 66 1010.2
20260906123044 30 249 4.8 16.1 0.00 0.00 0.00 65 1010.1
20260906121546 30 360 3.2 12.9 0.00 0.00 0.00 64 1010.2
20260906120040 31 41 4.8 12.9 0.00 0.00 0.00 63 1010.0
20260906114528 31 34 4.8 12.9 0.00 0.00 0.00 61 1010.2
20260906113023 31 237 6.4 19.3 0.00 0.00 0.00 60 1010.1
20260906111504 31 286 3.2 19.3 0.00 0.00 0.00 62 1010.1
20260906110004 30 342 6.4 19.3 0.00 0.00 0.00 64 1010.4
20260906104546 30 301 4.8 14.5 0.00 0.00 0.00 62 1010.4
20260906103046 31 301 3.2 20.9 0.00 0.00 0.00 62 1010.4
20260906101527 31 317 3.2 14.5 0.00 0.00 0.00 60 1010.4
20260906100024 31 261 8.0 17.7 0.00 0.00 0.00 62 1010.5
20260906094506 31 246 6.4 17.7 0.00 0.00 0.00 62 1010.5
20260906093008 30 272 6.4 17.7 0.00 0.00 0.00 62 1010.5
20260906091543 30 277 4.8 11.3 0.00 0.00 0.00 61 1010.4
20260906090042 30 188 4.8 14.5 0.00 0.00 0.00 63 1010.4
20260906084523 30 272 4.8 12.9 0.00 0.00 0.00 63 1010.4
20260906083023 30 263 3.2 12.9 0.00 0.00 0.00 61 1010.4
20260906081503 30 306 6.4 11.3 0.00 0.00 0.00 60 1010.5
20260906080002 30 300 3.2 6.4 0.00 0.00 0.00 60 1010.6
20260906074546 30 128 1.6 6.4 0.00 0.00 0.00 61 1010.6
20260906073053 30 198 1.6 11.3 0.00 0.00 0.00 63 1010.6
20260906071527 30 205 3.2 9.7 0.00 0.00 0.00 65 1010.8
20260906070034 30 316 0.0 8.0 0.00 0.00 0.00 66 1010.9
20260906064502 29 221 1.6 11.3 0.00 0.00 0.00 69 1010.9
20260906063001 29 277 1.6 8.0 0.00 0.00 0.00 70 1010.8
20260906061552 28 199 3.2 11.3 0.00 0.00 0.00 73 1010.9
20260906060036 27 281 3.2 9.7 0.00 0.00 0.00 77 1010.9
20260906054521 27 192 0.0 4.8 0.00 0.00 0.00 79 1010.6
20260906053013 26 221 1.6 4.8 0.00 0.00 0.00 80 1010.4
20260906051555 26 246 0.0 3.2 0.00 0.00 0.00 81 1010.5
20260906050108 26 246 0.0 4.8 0.00 0.00 0.00 82 1010.4
20260906044536 25 262 0.0 1.6 0.00 0.00 0.00 82 1010.4
20260906043042 25 262 0.0 1.6 0.00 0.00 0.00 82 1010.4
20260906041514 25 262 0.0 1.6 0.00 0.00 0.00 82 1010.1
20260906040013 25 263 0.0 3.2 0.00 0.00 0.00 82 1010.1
20260906034554 25 263 0.0 1.6 0.00 0.00 0.00 82 1010.1
20260906033053 25 263 0.0 0.0 0.00 0.00 0.00 82 1010.1
20260906031533 25 263 0.0 1.6 0.00 0.00 0.00 81 1009.9
20260906030033 25 263 0.0 1.6 0.00 0.00 0.00 81 1009.9
20260906024514 25 263 0.0 4.8 0.00 0.00 0.00 81 1010.0
20260906023013 25 263 0.0 0.0 0.00 0.00 0.00 81 1009.9
20260906021557 25 263 0.0 1.6 0.00 0.00 0.00 80 1010.0
20260906020055 25 263 0.0 0.0 0.00 0.00 0.00 80 1009.9
20260906014554 25 263 0.0 3.2 0.00 0.00 0.00 80 1009.8
20260906013041 25 263 0.0 1.6 0.00 0.00 0.00 80 1009.7
20260906011550 25 263 0.0 3.2 0.00 0.00 0.00 80 1009.8
20260906010039 26 263 0.0 0.0 0.00 0.00 0.00 79 1009.8
20260906004539 26 263 0.0 0.0 0.00 0.00 0.00 79 1009.8
20260906003036 26 263 0.0 1.6 0.00 0.00 0.00 78 1009.9
20260906001535 26 263 0.0 3.2 0.00 0.00 0.00 79 1010.0
20260906000038 26 263 0.0 1.6 0.00 0.00 0.00 79 1010.0
20260905234601 26 263 1.6 4.8 0.00 0.00 0.00 79 1010.0
20260905233005 26 261 1.6 4.8 0.00 0.00 0.00 79 1010.0
20260905231508 26 251 1.6 4.8 0.00 0.00 0.00 78 1010.0
20260905230044 26 250 0.0 3.2 0.00 0.00 0.00 78 1009.9
20260905224552 26 251 0.0 0.0 0.00 0.00 0.00 78 1010.0
20260905223032 26 252 0.0 1.6 0.00 0.00 0.00 78 1010.0
20260905221523 26 252 0.0 4.8 0.00 0.00 0.00 78 1010.1
20260905220004 26 249 1.6 3.2 0.00 0.00 0.00 78 1010.3
20260905214503 26 248 0.0 3.2 0.00 0.00 0.00 78 1010.3
20260905213044 26 259 0.0 3.2 0.00 0.00 0.00 78 1010.5
20260905211542 26 278 0.0 3.2 0.00 0.00 0.00 77 1010.6
20260905210023 26 278 1.6 3.2 0.00 0.00 0.00 77 1010.7
20260905204522 26 278 0.0 0.0 0.00 0.00 0.00 77 1010.6
20260905203005 26 278 0.0 3.2 0.00 0.00 0.00 77 1010.7
20260905201504 27 278 0.0 4.8 0.00 0.00 0.00 76 1010.8
20260905200053 27 278 1.6 4.8 0.00 0.00 0.00 76 1010.7
20260905194546 27 278 1.6 4.8 0.00 0.00 0.00 76 1010.7
20260905193029 27 278 1.6 4.8 0.00 0.00 0.00 76 1010.7
20260905191534 27 278 0.0 6.4 0.00 0.00 0.00 76 1010.8
20260905190028 27 278 1.6 4.8 0.00 0.00 0.00 76 1010.8
20260905184509 27 278 1.6 4.8 0.00 0.00 0.00 75 1010.8
20260905183057 27 278 0.0 4.8 0.00 0.00 0.00 75 1010.9
20260905181557 27 278 1.6 4.8 0.00 0.00 0.00 75 1010.8
20260905180006 27 288 1.6 8.0 0.00 0.00 0.00 75 1010.8
20260905174554 27 286 1.6 6.4 0.00 0.00 0.00 74 1010.8
20260905173035 28 289 0.0 6.4 0.00 0.00 0.00 74 1010.7
20260905171554 28 169 0.0 4.8 0.00 0.00 0.00 74 1010.6
20260905170053 28 30 3.2 6.4 0.00 0.00 0.00 75 1010.4
20260905164606 28 47 1.6 6.4 0.00 0.00 0.00 75 1010.2
20260905163054 28 289 1.6 6.4 0.00 0.00 0.00 74 1010.1
20260905161548 28 329 6.4 8.0 0.00 0.00 0.00 73 1010.0
20260905160124 -17 0.0 0.0 0.00 0.00 0.00 1009.9
20260905154549 28 117 3.2 9.7 0.00 0.00 0.00 74 1010.0
20260905153050 28 62 1.6 11.3 0.00 0.00 0.00 74 1009.9
20260905151553 28 296 3.2 8.0 0.00 0.00 0.00 72 1009.8
20260905150033 29 84 4.8 9.7 0.00 0.00 0.00 72 1009.8
20260905144550 29 134 3.2 12.9 0.00 0.00 0.00 71 1009.8
20260905143053 29 128 3.2 9.7 0.00 0.00 0.00 71 1009.8
20260905141601 29 152 3.2 9.7 0.00 0.00 0.00 71 1009.7
20260905140037 29 51 4.8 14.5 0.00 0.00 0.00 71 1009.7
20260905134555 30 117 4.8 11.3 0.00 0.00 0.00 71 1009.7
20260905133042 30 338 3.2 11.3 0.00 0.00 0.00 69 1009.7